sat.trackr.live / text

‹ back to catalog

JIAOTONG VDES

NORAD 54588 · 2022-164A

PAYLOAD ACTIVE UNKNOWN

§ Identity

Operator
Country
PRC
Launch date
2022-12-07
Launch site
JSC
Launch vehicle
Mass (kg)
RCS (m²)

External: N2YO · Heavens-Above · Gunter

§ Orbital elements

Epoch: 2026-09-20T23:46:47.277408Z

Period
99.58 min
Inclination
98.2418°
Eccentricity
0.0010672
Mean motion
14.46124293 rev/d
Perigee alt
730.7 km
Apogee alt
745.9 km
Semi-major
7,116.5 km
B*
7.3988e-5
RAAN
280.5176°
Arg perigee
41.9238°
Mean anomaly
318.2770°
Rev number
19,992

§ Raw data

JIAOTONG VDES1 54588U 22164A   26263.99082497  .00000222  00000+0  73988-4 0  99962 54588  98.2418 280.5176 0010672  41.9238 318.2770 14.46124293199920

JSON: /api/v1/satellites/54588 · /tle

For live sub-satellite position, see the globe view (requires WebGL).

§ Visibility from observer

Set your observer location to see the next 7 days of passes ≥ 10°. The values pass through the URL so the page stays shareable.

No JS? Fill the form by hand. The geolocation button needs JavaScript.